Погода в Ачинске

Погода в Ачинске : погода сейчас, прогноз погоды и архив. Всё, что Вы хотите узнать о погоде в Ачинске!

Поиск расширенной информации на нашем сайте:

Другие новости

Новости СМИ2

Главная страница сайта

Новости сайта

03.07.2017

Напоминаем, что на нашем специализированном сайте Метеоцентр.Азия вы можете получить высокодетализированные автоматические прогнозы погоды по пунктам России, СНГ и мира в авиационном формате (включающие направление и скорость ветра, видимость, явления погоды, количество и форму облачности, нижнюю и верхнюю границу облачности).


Погода в Ачинске - сегодня

Время (UTC), дата Ветер
(°,м/с) 
Видим.   Явления Облачность Т
(°С)
Тd
(°С)
f(%) Тe
(°С)
Pmin
(гПа)
dP
(гПа)
Po
(мм)
O2
(г/м3)
Тmin Tmax R s Состояние
почвы
06 17.08.17 010 (С) 20000 м    6/6 600 м 
[Cu med, cong]
+19.4 +4.9 38 +21  1015.4  -1  739  277           
09 17.08.17 320 (СЗ) 20000 м    8/8 600 м 
[Cu med, cong]
+21.2 +4.4 33 +21  1014.6  -0.6  739  276           
12 17.08.17 010 (С) 20000 м    1/1 600 м 
[Cu hum]
+19.8 +4.2 36 +21  1014.6  -0.1  739  277    +21.6       
15 17.08.17 тихо ()   20000 м    ясно 
+16 +5 48 +16  1015.6  0.6  739  281           
18 17.08.17 160 (Ю) 20000 м    ясно 
+12.1 +6.6 69 +13  1016.1  739  284           
21 17.08.17 160 (Ю) 20000 м    ясно 
+11.8 +8.3 79 +12  1015.9  -0.1  739  284           
00 18.08.17 160 (Ю) 20000 м    3/0 средняя 
[Ac trans]
+11.4 +8.2 81 +12  1016.1  0.1  739  284  +9.4        сухая 
03 18.08.17 180 (Ю) 20000 м    1/0 верхняя 
[Ci fib]
+18.5 +9.9 57 +20  1015.4  739  277           
06 18.08.17 150 (ЮВ) 20000 м    8/3 1000 м средняя, верхняя 
[Cu med, cong|Ac lent|Cc]
+21.9 +6.1 36 +22  1014.3  -0.7  739  274           
09 18.08.17 150 (ЮВ) 20000 м    4/3 1000 м верхняя 
[Cu med, cong|Ci fib]
+22.9 +5.8 33 +23  1013.2  -1  738  273           
12 18.08.17 180 (Ю) 20000 м    8/3 600 м средняя, верхняя 
[Sc|Ac trans|Ci]
+21.5 +5.5 35 +22  1012.7  -0.6  737  275    +23.4       
15 18.08.17 090 (В) 20000 м    9/8 600 м верхняя 
[Sc|Ci fib]
+16.9 +7.6 54 +18  1013.2  737  278           
18 18.08.17 250 (З) 20000 м    8/6 600 м верхняя 
[Sc|Ci fib]
+14.6 +8.8 68 +16  1012.7  -0.7  737  280           
21 18.08.17 250 (З) 20000 м    9/9 600 м 
[Sc]
+12.5 +10 85 +16  1012.6  -0.3  737  282           
00 19.08.17 230 (ЮЗ) 10 км  дым  9/6 600 м средняя, верхняя 
[Sc|Ac trans|Ci fib]
+11.6 +10.4 92 +15  1012.3  -0.4  736  283  +11.1        сухая 
03 19.08.17 230 (ЮЗ) 20000 м    9/9 600 м верхняя 
[Sc|Ci fib]
+15.1 +13.3 89 +22  1012.1  0.2  736  278  +10.8         
06 19.08.17 250 (З) 20000 м  {ливн. осадки}  9/9 600 м верхняя 
[Cu Sc|Ci fib]
+18.5 +14 75 +26  1011.6  -0.1  736  275           
09 19.08.17 310 (СЗ) 20000 м    9/5 600 м кучево-дожд., верхняя 
[Cb cap|Ci fib]
+20.5 +12.9 62 +26  1011.3  -0.1  736  273           
12 19.08.17 270 (З) 20000 м    9/4 600 м средняя, верхняя 
[Cu Sc|Ac trans|Ci fib]
+17.6 +12.5 72 +24  1012.6  737  277    +20.6  0.0     
15 19.08.17 270 (З) 20000 м    9/9 600 м кучево-дожд., верхняя 
[Cb cap|Ci fib]
+14.8 +13 89 +22  1013.9  738  279           
18 19.08.17 280 (З) 20000 м    10/10 600 м кучево-дожд. 
[Cb cap]
+13.8 +13.6 99 +22  1013.9  -0.1  738  280           
21 19.08.17 350 (С) 20000 м    10/10 600 м кучево-дожд. 
[Cb cap]
+13 +12.8 99 +18  1013.9  -0.1  738  281           
00 20.08.17 340 (С) 20000 м    10/10 600 м кучево-дожд. 
[Cb cap]
+12.1 +11.4 95 +15  1014.5  0.4  738  283  +12.1        сухая 
03 20.08.17 350 (С) 20000 м    9/9 600 м 
[Cu Sc]
+12 +10.1 88 +13  1015.6  1.1  739  283  +11.4         
06 20.08.17 310 (СЗ) 2{10}  20000 м    10/10 600 м кучево-дожд. 
[Cb cap]
+13.7 +8.9 73 +14  1015.9  0.4  739  282           
Время (UTC), дата Ветер
(°,м/с) 
Видим.   Явления Облачность Т
(°С)
Тd
(°С)
f(%) Тe
(°С)
Pmin
(гПа)
dP
(гПа)
Po
(мм)
O2
(г/м3)
Тmin Tmax R s Состояние
почвы

Для получения пояснительной информации подведите курсор к названию столбца.

ПОГОДА в Ачинске - архив

Всё, что Вы хотите узнать о погоде в Ачинске - удобно и подробно!

Выберите нужную дату (начиная с 1 января 2015* года) и нажмите кнопку "Найти".
Будут отображены архивные сводки погоды по пункту Ачинск, начиная с указанной даты.


Отображать данные в формате CSV (для использования в таблицах Excel)


Внимание! Наш архив погоды предназначен исключительно для личного некоммерческого использования в познавательных целях. Если Вам необходимы официальные справки о состоянии погоды (для производственных, юридических, коммерческих и т.п. целей), обращайтесь в органы Росгидромета.

*Примечание: данная дата относится к архиву по метеостанциям СССР (Россия, СНГ, Балтия).
Архив по метеостанциям Зарубежной Европы и Азии (кроме Китая) хранится 10 дней, по другим регионам земного шара (Китай, Африка, Америка, Австралия, Океания) - 1 день.

Ачинск - район местоположения метеостанции


Название, широта, долгота, высота метеостанции:
Ачинск 56.3°ш. 90.5°д. 272 м над ур. моря [Российская Федерация]

Дополнительная информация

В oтличие oт бoльшинства пoгoдных сайтoв мы публикуем пoдрoбную метеoинфoрмацию в детальнoм прoфессиoнальнoм фoрмате.

Характеристики температуры и влажнoсти вoздуха измеряются на высoте 2 м в тени вдали oт зданий и деревьев.
Скoрoсть ветра измеряется на высoте 10 м (на урoвне рoста челoвека скoрoсть ветра ниже в 1.5-2 раза). Если метеoстанция нахoдится в гoрoде или в лесу, тo скoрoсть ветра занижена на 2-4 м/с пo сравнению с oткрытым местoм. Скoрoсть ветра над акватoриями крупных рек и oзёр, а также на вершинах хoлмoв на 2-5 м/с выше, чем в oбычных услoвиях.
Атмoсфернoе давление в разных тoчках местнoсти мoжет значительнo oтличаться oт давления на метеoстанции, в зависимoсти oт услoвий рельефа (при пoдъёме на 10 м давление пoнижается примернo на 1 мм рт.ст.).